Location: Crescent
(42.8242°N, 73.7329°W)
Time: 21:45:10
(UTC+00:00)

Tiros 1 - Visible Passes

Search period start: 17 February 2026 00:00
Search period end: 27 February 2026 00:00
Orbit: 618 x 649 km, 48.4° (Epoch: 17 February)

Date Brightness Start Highest point End Pass type
(mag) Time Alt. Az. Time Alt. Az. Time Alt. Az.
21 Feb 9.7 10:56:20 10° S 10:59:45 21° SE 11:03:09 10° E visible
23 Feb 9.7 09:58:22 10° S 10:01:17 17° SE 10:04:12 10° E visible
24 Feb 8.6 10:18:26 10° SSW 10:22:35 33° SE 10:26:43 10° ENE visible
25 Feb 9.7 09:01:26 12° SSE 09:02:50 13° SE 09:05:02 10° ESE visible
25 Feb 7.5 10:39:28 10° SW 10:44:03 62° SSE 10:48:37 10° ENE visible
26 Feb 8.8 09:22:40 23° SSE 09:24:05 27° SE 09:27:59 10° E visible
26 Feb 7.1 11:01:00 10° WSW 11:05:41 79° NNW 11:10:18 10° ENE visible
